Location: La Comballaz
(46.3780°N, 7.0817°E)
Time: 00:55:16
(UTC+00:00)

Cosmos 921 Rocket - Pass Details

Date: 09 April 2020
Orbit: 572 x 632 km, 75.8° (Epoch: 30 May)

Event Time Altitude Azimuth Distance (km) Brightness Sun altitude
Rises 18:59:34 0° 345° (NNW) 2,790 7.0 -8.7°
Reaches altitude 10° 19:01:51 10° 352° (N) 1,888 6.0 -9.1°
Maximum altitude 19:05:54 47° 67° (ENE) 770 3.3 -9.7°
Enters shadow 19:09:46 11° 141° (SE) 1,816 4.9 -10.3°
